User: anonymous   Login
Location: Fishcreek Rd Observing Site
(41.1865°N, 81.4271°W)
Time: 03:58:03
(UTC-04:00)
Language:

Iridium 45 - Orbit

View from above orbital plane
View from above orbital plane
View from above satellite
View from above satellite

Ground track
Ground track

The orbit data is extracted from the following two-line orbital elements,

1 25104U 97082A   14295.46535687  .00000285  00000-0  95080-4 0  9466
2 25104 087.0234 314.8616 0002054 116.6556 243.4851 14.34214215881526
Epoch (UTC): 22 October 2014 11:10:06
Eccentricity: 0.0002054
inclination: 87.0234°
perigee height: 776 km
apogee height: 779 km
right ascension of ascending node: 314.8616°
argument of perigee: 116.6556°
revolutions per day: 14.34214215
mean anomaly at epoch: 243.4851°
orbit number at epoch: 88152

The dashed part of the orbit path shows where the satellite is in the earth's shadow,  

DLR